Location: Prairie View Elementary School
(39.8322°N, 99.5698°W)
Time: 05:24:58
(UTC+00:00)

Daily predictions for brighter satellites

Satellite Brightness Start Highest point End
(mag) Time Altitude Azimuth Time Altitude Azimuth Time Altitude Azimuth
Cosmos 2242 Rocket 4.3 00:00:01 10° SSE 00:04:09 35° E 00:08:20 10° NNE
Cosmos 1862 Rocket 3.6 00:01:26 10° S 00:05:41 60° E 00:10:00 10° NNE
Cosmos 1346 Rocket 4.0 00:03:23 10° NNW 00:07:11 45° W 00:11:01 10° SSW
BREEZE-M DEB (TANK) 2.0 00:04:46 10° NW 00:07:14 44° NNE 00:08:58 14° E
Cosmos 1302 Rocket 4.1 00:02:29 10° NNW 00:07:47 83° WSW 00:13:00 10° SSE
COSMOS 2428 3.2 00:02:27 10° SW 00:08:03 61° WNW 00:13:42 10° NNE
Aureole 1 Rocket 3.8 00:07:07 10° SE 00:09:05 16° E 00:09:35 16° E
IRS-1C Rocket 4.2 00:06:02 10° SSE 00:11:19 82° WSW 00:16:37 10° NNW
Cosmos 2251 Rocket 3.5 00:06:19 10° S 00:11:37 73° ESE 00:16:54 10° NNE
Okean-O 2.8 00:07:24 10° SSE 00:11:40 49° ENE 00:15:57 10° N
Shenzhou-11 Module 2.3 00:09:36 10° W 00:12:14 43° N 00:13:45 21° ENE
Cosmos 1666 3.8 00:10:43 10° NNE 00:13:43 22° ENE 00:16:42 10° SE
Meteor 1-5 Rocket 4.1 00:09:37 10° N 00:15:12 83° E 00:20:34 10° S
STARLINK-46 4.4 00:13:14 10° W 00:15:28 23° NNW 00:17:16 13° NNE
NOSS 2 (A) 4.0 00:15:25 10° NNW 00:17:44 49° NE 00:19:45 12° SE
OAO 3 Rocket 4.3 00:14:31 10° SW 00:18:45 33° SSE 00:22:19 14° ESE
AQUARIUS 4.4 00:17:15 10° S 00:21:44 76° WSW 00:26:15 10° NNW
FengYun 1-2 T 4.4 00:20:39 10° SE 00:25:52 47° ENE 00:31:06 10° N
NOSS 0 Rocket 4.0 00:20:26 10° SSW 00:26:38 88° WNW 00:32:55 10° NNE
ISS -2.8 00:25:01 10° NW 00:28:00 29° NNE 00:28:44 27° NE
OAO 2 Rocket 4.1 00:23:32 10° WSW 00:28:14 42° SSE 00:31:44 17° ESE
Cosmos 1092 Rocket 4.1 00:22:40 10° SSE 00:28:50 56° E 00:34:58 10° NNE
STARLINK-60 3.3 00:28:23 10° SW 00:31:41 54° SE 00:32:56 32° ENE
Envisat 2.9 00:28:34 10° SSE 00:33:38 76° ENE 00:38:43 10° N
RESURS DK-1 4.0 00:32:42 10° WSW 00:36:23 31° WNW 00:40:06 10° N
Cosmos 1812 3.8 00:35:28 10° SSW 00:39:10 46° W 00:42:56 10° N
Cosmos 407 Rocket 4.2 00:39:17 10° SSE 00:43:50 32° E 00:44:58 29° ENE
Cosmos 1908 Rocket 3.5 00:39:28 10° N 00:43:51 60° E 00:48:08 10° SSE
Exosat Rocket 4.3 00:38:37 10° SW 00:44:04 52° WNW 00:48:57 10° NNE
Cosmos 2278 Rocket 2.1 00:39:20 10° NNW 00:45:03 89° ENE 00:50:42 10° SSE
COSMO-SKYMED 1 2.4 00:41:05 10° NNE 00:45:26 79° E 00:49:47 10° S
YAOGAN 1 2.7 00:47:10 10° SSE 00:51:19 48° ENE 00:55:30 10° N
Cosmos 1992 Rocket 4.0 00:47:55 10° NNW 00:53:10 86° WSW 00:58:23 10° SSE
SL-16 R/B 2.4 00:50:24 10° S 00:55:47 47° ESE 00:57:41 34° ENE
USA 116 4.4 00:51:57 12° NNE 00:56:55 67° E 01:02:00 10° S
NOAA 15 4.5 00:53:58 10° SSE 00:59:10 66° ENE 01:04:24 10° N
Cosmos 2333 Rocket 4.2 00:55:31 10° WSW 01:00:05 24° NW 01:04:43 10° N
Atlas Centaur 2 4.4 00:54:40 10° WSW 01:01:32 33° SSW 01:08:51 10° SE
Cosmos 1536 3.8 01:01:35 10° NNW 01:05:28 47° W 01:09:17 10° SSW
FALCON 9 DEB 3.1 01:02:21 10° SW 01:05:43 83° SSW 01:05:43 83° SSW
CZ-4 R/B 1.3 01:04:02 10° S 01:07:59 82° W 01:11:53 10° NNW
Okean 1-7 2.9 01:03:48 10° S 01:08:07 87° E 01:09:56 35° N
Cosmos 2237 Rocket 3.0 01:02:51 10° SW 01:08:23 51° WNW 01:13:14 14° N
Cosmos 1900 4.1 01:05:06 10° NNW 01:10:00 81° ENE 01:12:32 29° SE
YAOGAN 6 3.5 01:08:59 10° S 01:12:22 48° W 01:15:50 10° NNW
Cosmos 1428 Rocket 4.3 01:09:04 10° S 01:15:12 81° E 01:21:26 10° N
Cosmos 1553 Rocket 4.1 01:11:16 10° N 01:17:28 53° E 01:23:42 10° SSE
Lacrosse 5 rocket 3.3 01:15:51 10° W 01:19:04 21° NNW 01:20:03 19° NNW
STARLINK-52 4.2 01:20:45 10° SW 01:23:16 44° WSW 01:23:16 44° WSW
Okean 1 4.1 01:22:05 10° S 01:24:53 44° SSW 01:24:53 44° SSW
SL-4 R/B 4.2 01:27:18 10° NW 01:29:04 16° NNW 01:29:04 16° NNW
DMSP B5D1-3 4.4 01:29:06 57° NNE 01:30:12 89° ESE 01:35:18 10° SSW
Cosmos 2026 Rocket 4.2 01:25:47 10° SSW 01:31:47 65° W 01:37:50 10° N
Meteor 1-18 Rocket 4.1 01:27:05 10° S 01:32:51 89° WNW 01:34:52 43° N
Cosmos 1190 Rocket 3.8 01:29:07 10° SSW 01:34:12 83° SE 01:34:12 83° SE
Cosmos 1782 Rocket 4.2 01:33:47 10° NNW 01:38:48 51° SW 01:42:20 10° S
Cosmos 2297 3.8 01:40:04 10° NNW 01:44:54 65° NNW 01:44:54 65° NNW
CSL-04 Rocket 4.4 01:41:57 10° S 01:47:02 50° W 01:52:11 10° NNW
Cosmos 1417 Rocket 4.3 01:42:05 10° N 01:48:15 87° E 01:54:23 10° S
Cosmos 1943 Rocket 4.5 01:43:37 10° N 01:43:56 11° N 01:43:56 11° N
Cosmos 1655 Rocket 3.9 01:44:27 10° S 01:50:33 82° SE 01:50:33 82° SE
SL-16 R/B 4.1 02:35:26 10° WSW 02:39:37 25° WNW 02:39:37 25° WNW
Centaur D AC-28 4.4 10:23:56 28° S 10:23:56 28° S 10:36:31 10° ESE
Aureole 1 Rocket 4.3 10:51:37 60° SE 10:51:37 60° SE 10:57:27 10° SSE
Cosmos 2227 Rocket 4.5 11:01:19 12° N 11:01:19 12° N 11:01:47 10° N
Cosmos 1371 Rocket 4.4 11:08:38 58° NE 11:08:38 58° NE 11:12:59 10° NNE
Cosmos 407 Rocket 4.1 11:10:57 46° NNE 11:12:04 55° ENE 11:17:18 10° SE
Cosmos 1933 Rocket 4.4 11:10:33 10° SSE 11:14:41 47° E 11:18:51 10° NNE
Cosmos 1241 Rocket 4.3 11:18:34 68° NNW 11:19:27 89° ENE 11:25:40 10° SSE
GEOS 3 Rocket 3.8 11:15:57 10° SE 11:20:58 66° NE 11:21:44 57° N
Cosmos 1891 Rocket 4.4 11:17:26 10° SSW 11:23:50 69° W 11:30:11 10° N
Cosmos 1464 Rocket 3.9 11:23:14 10° SSW 11:29:22 62° W 11:35:28 10° N
CZ-4C R/B 3.0 11:27:57 34° NNW 11:31:42 82° NE 11:40:04 10° SE
SL-16 R/B 2.2 11:34:55 58° WSW 11:34:55 58° WSW 11:40:23 10° S
Lacrosse 5 2.8 11:39:52 33° SSW 11:39:52 33° SSW 11:43:29 10° S
Cosmos 2084 Rocket 4.5 11:37:42 35° N 11:38:54 43° NE 11:43:06 10° ESE
COSMO-SKYMED 1 3.2 11:35:02 10° SSE 11:39:15 55° ENE 11:41:58 21° N
ALOS 3.1 11:39:19 10° NNE 11:43:52 50° E 11:48:23 10° S
ATLAS 5 CENTAUR R/B 4.0 11:47:23 11° N 11:47:23 11° N 11:47:49 10° N
USA 234 3.7 11:39:16 10° NE 11:45:15 40° NNW 11:46:22 37° NW
Okean O Rocket 3.1 11:44:10 10° NNE 11:48:16 37° E 11:52:21 10° SSE
Meteor 1-27 Rocket 3.9 11:48:51 33° NW 11:51:17 55° W 11:57:00 10° S
Cosmos 1624 Rocket 4.0 11:49:53 36° SW 11:51:49 55° WNW 11:57:04 10° N
Cosmos 1862 Rocket 4.3 11:53:56 37° SW 11:53:56 37° SW 11:57:02 10° SSW
Cosmos 2242 Rocket 3.5 11:51:53 35° NNW 11:53:46 76° W 11:58:14 10° S
Cosmos 1484 Rocket 2.6 11:50:35 10° N 11:54:31 70° WNW 11:58:22 10° SSW
Cosmos 1703 Rocket 4.0 11:51:06 10° N 11:55:31 63° E 11:59:52 10° SSE
